Home > Weather > Norrköping > Past weeks

Flag for Sweden Past Weather in Norrköping, Sweden — Yesterday and Last 2 Weeks

Now
77 °F

Partly sunny.


Feels Like: 78 °F
Forecast: 61 / 82 °F
Wind: 6 mph from Southeast

Location: Norrkoping Airport

Current Time: Jul 24, 2016 at 8:39:20 PM

Latest Report: Jul 24, 2016 at 7:50 PM


Visibility: N/A

Pressure: 30.07 "Hg

Humidity: 44%

Dew Point: 54 °F

Location of NorrköpingLocation

Past Weather in Norrköping — Graph

°F

Norrköping Temperature Yesterday

Maximum temperature yesterday: 84 °F (at 4:50 PM)
Minimum temperature yesterday: 50 °F (at 3:50 AM)
Average temperature yesterday: 68 °F

High & Low Weather Summary for the Past Weeks

 TemperatureHumidityPressure
High86 °F (Jul 24, 3:20 PM)100% (Jul 11, 2:50 AM)30.12 "Hg (Jul 11, 2:50 AM)
Low45 °F (Jul 19, 2:50 AM)21% (Jul 21, 4:20 PM)29.47 "Hg (Jul 11, 12:50 PM)
Average64 °F68%29.88 "Hg
* Reported Jul 9 7:20 PM — Jul 24 7:20 PM, Norrköping, Weather by CustomWeather, © 2016

Note: Actual official high and low records may vary slightly from our data, if they occured in-between our weather recording intervals... More about our weather records

Advertising

Norrköping Weather History for the Previous 24 Hours

Scroll right to see more
 ConditionsComfort  
Time TempWeatherWind HumidityBarometerVisibility
7:20 PM
Sun, Jul 24
79 °FPassing clouds.9 mph39%30.07 "HgN/A
6:50 PM81 °FPassing clouds.10 mph37%30.07 "HgN/A
6:20 PM82 °FPleasantly warm.13 mph32%30.07 "HgN/A
5:50 PM84 °FPleasantly warm.10 mph33%30.07 "HgN/A
5:20 PM86 °FPassing clouds.3 mph27%30.07 "HgN/A
4:50 PM84 °FPassing clouds.5 mph27%30.07 "HgN/A
4:20 PM82 °FSunny.3 mph30%30.07 "Hg10 mi
3:50 PM82 °FSunny.5 mph32%30.09 "Hg10 mi
3:20 PM86 °FPassing clouds.3 mph27%30.09 "HgN/A
2:50 PM82 °FPassing clouds.5 mph30%30.09 "HgN/A
2:20 PM84 °FPassing clouds.6 mph31%30.09 "HgN/A
1:50 PM84 °FSunny.3 mph29%30.09 "Hg10 mi
1:20 PM84 °FPassing clouds.3 mph29%30.09 "HgN/A
12:50 PM82 °FPassing clouds.3 mph30%30.09 "HgN/A
12:20 PM82 °FScattered clouds.5 mph32%30.09 "Hg2 mi
11:50 AM82 °FSunny.2 mph32%30.12 "Hg10 mi
11:20 AM81 °FSunny.2 mph34%30.12 "Hg10 mi
10:50 AM79 °FSunny.2 mph37%30.12 "Hg10 mi
10:20 AM79 °FSunny.2 mph42%30.12 "Hg10 mi
9:50 AM75 °FSunny.No wind50%30.12 "Hg10 mi
9:20 AM73 °FSunny.No wind57%30.12 "Hg10 mi
8:50 AM72 °FSunny.No wind61%30.12 "Hg10 mi
8:20 AM70 °FSunny.No wind64%30.12 "Hg10 mi
7:50 AM68 °FSunny.No wind69%30.12 "Hg10 mi
7:20 AM66 °FMild.No wind73%30.12 "HgN/A
6:50 AM61 °FCool.2 mph88%30.12 "HgN/A
6:20 AM57 °FCool.3 mph94%30.12 "HgN/A
5:50 AM54 °FCool.No wind100%30.12 "HgN/A
5:20 AM54 °FCool.No wind100%30.12 "HgN/A
4:50 AM55 °FClear.No wind94%30.12 "Hg10 mi
4:20 AM55 °FClear.No wind94%30.12 "Hg10 mi
3:50 AM55 °FClear.No wind94%30.12 "Hg10 mi
3:20 AM55 °FClear.No wind94%30.12 "Hg10 mi
2:50 AM55 °FPassing clouds.3 mph94%30.12 "HgN/A
2:20 AM55 °FCool.No wind94%30.12 "HgN/A
1:50 AM57 °FCool.No wind88%30.12 "HgN/A
1:20 AM57 °FCool.No wind94%30.12 "HgN/A
12:50 AM57 °FCool.2 mph88%30.12 "HgN/A
12:20 AM57 °FCool.1 mph88%30.12 "HgN/A
11:50 PM
Sat, Jul 23
57 °FCool.3 mph88%30.12 "HgN/A
11:20 PM59 °FCool.2 mph82%30.12 "HgN/A
10:50 PM59 °FCool.3 mph82%30.12 "HgN/A
10:20 PM64 °FMild.3 mph68%30.12 "HgN/A
9:50 PM66 °FMild.5 mph68%30.09 "HgN/A
9:20 PM66 °FMild.6 mph68%30.09 "HgN/A
8:50 PM70 °FMild.6 mph60%30.09 "HgN/A
8:20 PM73 °FSunny.7 mph50%30.09 "Hg10 mi
Weather by CustomWeather, © 2016

See weather overviewHow to use our weather pages